Cairns, Australia

8:13 PM AEST on December 17, 2017 (GMT +1000)
Cairns International

Weather History for YBCS - January, 2013

Change the Weather History Date:

Friday, January 25, 2013

  Actual Average Record
Temperature  
Mean Temperature 86 °F -  
Max Temperature 96 °F 88 °F 96 °F (2013)
Min Temperature 75 °F 74 °F 69 °F (2011)
Cooling Degree Days 20    
Growing Degree Days 36 (Base 50)    
Moisture  
Dew Point 72 °F    
Average Humidity 66    
Maximum Humidity 89    
Minimum Humidity 37    
Precipitation  
Precipitation 0.12 in 0.55 in - ()
Sea Level Pressure  
Sea Level Pressure 29.51 in    
Wind  
Wind Speed 8 mph ()    
Max Wind Speed 21 mph    
Max Gust Speed 33 mph    
Visibility 7.5 miles    
Events Rain    
Averages and records for this station are not official NWS values.
T = Trace of Precipitation, MM = Missing Value Source: Averaged Metar Reports

Daily Weather History Graph

Daily Weather History Graph

Search for Another Location

Airport or City:

Trip Planner

Search our weather history database for the weather conditions in past years. The results will help you decide how hot, cold, wet, or windy it might be!

Date:

Astronomy

Jan. 25, 2013 Rise Set
Actual Time 6:01 AM AEST 6:56 PM AEST
Civil Twilight 5:38 AM AEST 7:19 PM AEST
Nautical Twilight 5:11 AM AEST 7:47 PM AEST
Astronomical Twilight 4:43 AM AEST 8:15 PM AEST
Moon 5:21 PM AEST (1/25) 4:06 AM AEST (1/25)
Length of Visible Light 13h 41m
Length of Day
12h 55m
Waxing Gibbous, 96% of the Moon is Illuminated
Jan 25
Waxing Gibbous
Jan 27
Full
Feb 3
Last Quarter
Feb 10
New
Feb 18
First Quarter

Hourly Weather History & Observations

Time (AEST) Temp. Heat Index Dew Point Humidity Pressure Visibility Wind Dir Wind Speed Gust Speed Precip Events Conditions
12:00 AM 78 °F - 73 °F 79% 29.54 in - WNW 4.6 mph - -  
12:00 AM 77.0 °F - 73.4 °F 89% 29.53 in 6.2 mi WNW 4.6 mph - N/A   Overcast
12:30 AM 77.0 °F - 73.4 °F 89% 29.50 in 6.2 mi WNW 3.5 mph - N/A   Overcast
1:00 AM 77 °F - 73 °F 84% 29.51 in - SW 3.5 mph - -  
1:00 AM 77.0 °F - 73.4 °F 89% 29.50 in 6.2 mi SW 3.5 mph - N/A   Overcast
1:30 AM 77.0 °F - 73.4 °F 89% 29.47 in 6.2 mi WNW 6.9 mph - N/A   Overcast
2:00 AM 77.0 °F - 73.4 °F 89% 29.47 in 6.2 mi West 6.9 mph - N/A   Overcast
2:30 AM 78.8 °F - 73.4 °F 83% 29.47 in 6.2 mi WNW 8.1 mph - N/A   Mostly Cloudy
3:00 AM 79 °F - 73 °F 77% 29.50 in - West 10.4 mph - -  
3:00 AM 78.8 °F - 73.4 °F 83% 29.50 in 6.2 mi West 10.4 mph - N/A   Mostly Cloudy
3:30 AM 78.8 °F - 73.4 °F 83% 29.50 in 6.2 mi WNW 8.1 mph - N/A   Mostly Cloudy
4:00 AM 78 °F - 74 °F 84% 29.51 in - West 6.9 mph - -  
4:00 AM 78.8 °F - 73.4 °F 83% 29.50 in 6.2 mi West 6.9 mph - N/A   Mostly Cloudy
4:30 AM 78.8 °F - 75.2 °F 89% 29.50 in 6.2 mi WNW 5.8 mph - N/A   Mostly Cloudy
5:00 AM 78.8 °F - 75.2 °F 89% 29.50 in 6.2 mi WNW 5.8 mph - N/A   Mostly Cloudy
5:30 AM 78.8 °F - 75.2 °F 89% 29.50 in 6.2 mi West 8.1 mph - N/A   Mostly Cloudy
6:00 AM 79 °F - 75 °F 83% 29.53 in 16 mi West 6.9 mph - -   Partly Cloudy
6:00 AM 78.8 °F - 75.2 °F 89% 29.53 in 6.2 mi West 6.9 mph - N/A   Overcast
6:30 AM 78.8 °F - 75.2 °F 89% 29.53 in 6.2 mi WNW 6.9 mph - N/A   Mostly Cloudy
7:00 AM 80 °F - 76 °F 82% 29.56 in - West 8.1 mph - -  
7:00 AM 80.6 °F 86.2 °F 75.2 °F 84% 29.53 in 6.2 mi West 8.1 mph - N/A   Mostly Cloudy
7:30 AM 80.6 °F 87.1 °F 77.0 °F 89% 29.53 in 6.2 mi WNW 10.4 mph - N/A   Mostly Cloudy
8:00 AM 84.2 °F 92.3 °F 75.2 °F 74% 29.56 in 6.2 mi WNW 11.5 mph - N/A   Mostly Cloudy
8:30 AM 86.0 °F 95.1 °F 75.2 °F 70% 29.56 in 6.2 mi WNW 13.8 mph - N/A   Mostly Cloudy
9:00 AM 89 °F - 76 °F 57% 29.57 in 16 mi NW 13.8 mph - -   Partly Cloudy
9:00 AM 89.6 °F 99.8 °F 75.2 °F 62% 29.56 in 6.2 mi NW 13.8 mph - N/A   Mostly Cloudy
9:30 AM 89.6 °F 102.2 °F 77.0 °F 66% 29.56 in 6.2 mi NW 13.8 mph - N/A   Mostly Cloudy
10:00 AM 90 °F - 76 °F 54% 29.55 in - NW 12.7 mph - -  
10:00 AM 89.6 °F 99.8 °F 75.2 °F 62% 29.53 in 6.2 mi NW 12.7 mph - N/A   Mostly Cloudy
10:30 AM 89.6 °F 99.8 °F 75.2 °F 62% 29.53 in 6.2 mi NW 10.4 mph - N/A   Mostly Cloudy
11:00 AM 91.4 °F 100.1 °F 73.4 °F 55% 29.53 in 6.2 mi NW 10.4 mph - N/A   Mostly Cloudy
11:30 AM 91.4 °F 100.1 °F 73.4 °F 55% 29.50 in 6.2 mi WNW 12.7 mph - N/A   Mostly Cloudy
12:00 PM 93 °F - 73 °F 43% 29.52 in 16 mi WNW 10.4 mph - -   Partly Cloudy
12:00 PM 93.2 °F 102.4 °F 73.4 °F 52% 29.50 in 6.2 mi WNW 10.4 mph - N/A   Mostly Cloudy
12:30 PM 93.2 °F 100.5 °F 71.6 °F 49% 29.50 in 6.2 mi WNW 13.8 mph - N/A   Mostly Cloudy
1:00 PM 95 °F - 71 °F 37% 29.50 in - West 10.4 mph - -  
1:00 PM 95.0 °F 103.2 °F 71.6 °F 47% 29.47 in 6.2 mi West 10.4 mph - N/A   Mostly Cloudy
1:30 PM 96.8 °F 107.3 °F 73.4 °F 47% 29.47 in 6.2 mi NW 11.5 mph - N/A   Mostly Cloudy
2:00 PM 95.0 °F 103.2 °F 71.6 °F 47% 29.44 in 6.2 mi NW 12.7 mph - N/A   Mostly Cloudy
2:30 PM 96.8 °F 105.1 °F 71.6 °F 44% 29.44 in 6.2 mi NW 10.4 mph - N/A   Mostly Cloudy
3:00 PM 94 °F - 72 °F 39% 29.44 in 12 mi NW 8.1 mph - - Rain Light Rain Showers
3:00 PM 93.2 °F 100.5 °F 71.6 °F 49% 29.42 in 6.2 mi NW 8.1 mph - N/A Rain Light Rain Showers
3:23 PM 84.2 °F 92.3 °F 75.2 °F 74% 29.44 in 2.5 mi West 12.7 mph 26.5 mph N/A Rain Rain Showers
3:30 PM 82.4 °F 90.9 °F 77.0 °F 84% 29.44 in 6.2 mi NNE 15.0 mph - N/A   Mostly Cloudy
4:00 PM 86 °F - 75 °F 63% 29.45 in - East 8.1 mph - -  
4:00 PM 86.0 °F 95.1 °F 75.2 °F 70% 29.44 in 6.2 mi East 8.1 mph - N/A   Mostly Cloudy
4:30 PM 87.8 °F 102.5 °F 78.8 °F 75% 29.44 in 6.2 mi North 6.9 mph - N/A   Mostly Cloudy
5:00 PM 86.0 °F 90.4 °F 69.8 °F 58% 29.44 in 6.2 mi WNW 9.2 mph - N/A   Mostly Cloudy
5:30 PM 86.0 °F 89.4 °F 68.0 °F 55% 29.44 in 6.2 mi WNW 11.5 mph - N/A   Mostly Cloudy
6:00 PM 86 °F - 69 °F 47% 29.48 in 19 mi WNW 8.1 mph - -   Scattered Clouds
6:00 PM 86.0 °F 89.4 °F 68.0 °F 55% 29.47 in 6.2 mi WNW 8.1 mph - N/A   Mostly Cloudy
6:30 PM 84.2 °F 87.3 °F 68.0 °F 58% 29.50 in - West 4.6 mph - N/A   Clear
7:00 PM 84 °F - 69 °F 52% 29.53 in - SW 4.6 mph - -  
7:00 PM 84.2 °F 88.4 °F 69.8 °F 62% 29.50 in - SW 4.6 mph - N/A   Clear
7:30 PM 84.2 °F 86.6 °F 66.2 °F 55% 29.53 in - West 13.8 mph - N/A   Clear
8:00 PM 84.2 °F 86.6 °F 66.2 °F 55% 29.53 in 6.2 mi NW 9.2 mph - N/A Rain Light Rain Showers
8:18 PM 84.2 °F 86.6 °F 66.2 °F 55% 29.53 in - WNW 20.7 mph - N/A   Clear
8:23 PM 84.2 °F 86.6 °F 66.2 °F 55% 29.53 in - West 19.6 mph 31.1 mph N/A   Clear
8:30 PM 84.2 °F 86.6 °F 66.2 °F 55% 29.53 in - West 17.3 mph - N/A   Clear
9:00 PM 83 °F - 67 °F 49% 29.55 in 19 mi NW 16.1 mph - -   Partly Cloudy
9:00 PM 82.4 °F 84.6 °F 66.2 °F 58% 29.53 in - NW 16.1 mph - N/A   Clear
9:14 PM 84.2 °F 86.6 °F 66.2 °F 55% 29.53 in - NW 19.6 mph 33.4 mph N/A   Clear
9:30 PM 84.2 °F 86.6 °F 66.2 °F 55% 29.56 in - WNW 18.4 mph 29.9 mph N/A   Clear
10:00 PM 84 °F - 67 °F 46% 29.57 in - WNW 16.1 mph - -  
10:00 PM 84.2 °F 86.6 °F 66.2 °F 55% 29.56 in - WNW 16.1 mph 27.6 mph N/A   Clear
10:30 PM 82.4 °F 85.4 °F 68.0 °F 62% 29.56 in - NW 10.4 mph - N/A   Clear
11:00 PM 82.4 °F 85.4 °F 68.0 °F 62% 29.56 in - NW 5.8 mph - N/A   Clear
11:30 PM 80.6 °F 83.2 °F 68.0 °F 65% 29.56 in - NW 3.5 mph - N/A   Clear